BAW1934 LPPT-EGLL

Flight info

Callsign BAW1934
Flight time 1h 57m
Altitude 40000
Route IXIDA DCT RIVRO DCT TOSDI DCT ZMR DCT NUBLO DCT RONSI DCT DELOG DCT DEGEX DCT OZNOH DCT JSY DCT REVTU/N0479F340 UP87 ROXOG
Aircraft A35K/H-SDE2E3GHIJ3J4J5LM1ORWXY/LB1D1

Departure

Time 2026-05-06 16:53
Airport Lisbon Humberto Delgado Airport (LPPT)

Arrival

Time 2026-05-06 18:50
Airport London Heathrow Airport (EGLL)
Time Latitude Longitude Altitude Speed Heading
2026-05-06 16:26 38.77608 -9.13209 343 ft 0 kts 78°
2026-05-06 16:41 38.77606 -9.13216 343 ft 2 kts 79°
2026-05-06 16:41 38.77604 -9.13237 350 ft 2 kts 84°
2026-05-06 16:41 38.77603 -9.13258 347 ft 2 kts 91°
2026-05-06 16:41 38.77605 -9.13279 350 ft 2 kts 103°
2026-05-06 16:42 38.77610 -9.13299 354 ft 2 kts 126°
2026-05-06 16:42 38.77622 -9.13313 355 ft 2 kts 155°
2026-05-06 16:42 38.77636 -9.13319 355 ft 1 kts 174°
2026-05-06 16:42 38.77640 -9.13319 355 ft 0 kts 177°
2026-05-06 16:47 38.77639 -9.13319 355 ft 1 kts 177°
2026-05-06 16:47 38.77619 -9.13318 355 ft 5 kts 178°
2026-05-06 16:47 38.77567 -9.13315 347 ft 9 kts 174°
2026-05-06 16:47 38.77494 -9.13296 352 ft 12 kts 167°
2026-05-06 16:48 38.77402 -9.13271 352 ft 13 kts 169°
2026-05-06 16:48 38.77333 -9.13317 354 ft 11 kts 241°
2026-05-06 16:48 38.77313 -9.13404 350 ft 9 kts 256°
2026-05-06 16:48 38.77297 -9.13491 355 ft 11 kts 257°
2026-05-06 16:49 38.77281 -9.13586 355 ft 11 kts 258°
2026-05-06 16:49 38.77265 -9.13687 361 ft 13 kts 258°
2026-05-06 16:49 38.77242 -9.13807 364 ft 14 kts 245°
2026-05-06 16:49 38.77166 -9.13879 360 ft 15 kts 205°
2026-05-06 16:50 38.77058 -9.13937 365 ft 19 kts 203°
2026-05-06 16:50 38.76925 -9.14009 360 ft 23 kts 202°
2026-05-06 16:50 38.76766 -9.14094 357 ft 24 kts 202°
2026-05-06 16:50 38.76641 -9.14160 356 ft 14 kts 202°
2026-05-06 16:51 38.76599 -9.14238 347 ft 5 kts 282°
2026-05-06 16:51 38.76599 -9.14240 348 ft 0 kts 284°
2026-05-06 16:51 38.76602 -9.14250 352 ft 4 kts 284°
2026-05-06 16:52 38.76616 -9.14308 352 ft 10 kts 292°
2026-05-06 16:52 38.76667 -9.14359 352 ft 9 kts 356°
2026-05-06 16:52 38.76731 -9.14341 352 ft 11 kts 18°
2026-05-06 16:52 38.76882 -9.14262 357 ft 51 kts 22°
2026-05-06 16:53 38.77436 -9.13965 370 ft 120 kts 22°
2026-05-06 16:53 38.78408 -9.13438 382 ft 178 kts 18°
2026-05-06 16:53 38.79560 -9.12789 1045 ft 181 kts 22°
2026-05-06 16:53 38.80595 -9.11975 2094 ft 172 kts 28°
2026-05-06 16:54 38.81669 -9.11114 2574 ft 194 kts 27°
2026-05-06 16:54 38.82929 -9.10178 2978 ft 220 kts 25°
2026-05-06 16:54 38.84321 -9.09175 3516 ft 239 kts 26°
2026-05-06 16:54 38.85689 -9.07886 4260 ft 250 kts 36°
2026-05-06 16:55 38.87011 -9.06400 5168 ft 256 kts 39°
2026-05-06 16:55 38.88332 -9.04807 6117 ft 260 kts 41°
2026-05-06 16:55 38.89627 -9.03178 7017 ft 265 kts 41°
2026-05-06 16:55 38.90951 -9.01486 7978 ft 268 kts 41°
2026-05-06 16:56 38.92285 -8.99785 8932 ft 273 kts 41°
2026-05-06 16:56 38.93646 -8.98065 9892 ft 278 kts 40°
2026-05-06 16:56 38.95051 -8.96300 10547 ft 294 kts 40°
2026-05-06 16:56 38.96577 -8.94399 10894 ft 319 kts 40°
2026-05-06 16:57 38.98233 -8.92335 11244 ft 343 kts 40°
2026-05-06 16:57 38.99997 -8.90126 11825 ft 357 kts 41°
2026-05-06 16:57 39.01785 -8.87874 12591 ft 365 kts 41°
2026-05-06 16:57 39.03599 -8.85583 13377 ft 372 kts 41°
2026-05-06 16:58 39.05451 -8.83244 14116 ft 378 kts 41°
2026-05-06 16:58 39.07358 -8.80836 14854 ft 384 kts 41°
2026-05-06 16:58 39.09280 -8.78411 15606 ft 389 kts 41°
2026-05-06 16:58 39.11231 -8.75948 16348 ft 394 kts 41°
2026-05-06 16:59 39.13190 -8.73474 17099 ft 399 kts 41°
2026-05-06 16:59 39.15172 -8.70968 17858 ft 404 kts 41°
2026-05-06 16:59 39.17201 -8.68403 18555 ft 409 kts 41°
2026-05-06 16:59 39.19243 -8.65818 19222 ft 414 kts 41°
2026-05-06 17:00 39.21323 -8.63182 19923 ft 419 kts 41°
2026-05-06 17:00 39.23396 -8.60554 20638 ft 423 kts 41°
2026-05-06 17:00 39.25516 -8.57864 21367 ft 428 kts 41°
2026-05-06 17:00 39.27639 -8.55167 22036 ft 433 kts 41°
2026-05-06 17:01 39.29790 -8.52431 22710 ft 438 kts 41°
2026-05-06 17:01 39.31977 -8.49649 23373 ft 443 kts 41°
2026-05-06 17:01 39.34199 -8.46818 23963 ft 449 kts 41°
2026-05-06 17:01 39.36425 -8.43980 24527 ft 454 kts 41°
2026-05-06 17:02 39.38682 -8.41100 25087 ft 459 kts 41°
2026-05-06 17:02 39.40962 -8.38188 25650 ft 463 kts 41°
2026-05-06 17:02 39.43267 -8.35240 26229 ft 468 kts 41°
2026-05-06 17:02 39.45589 -8.32267 26775 ft 472 kts 40°
2026-05-06 17:03 39.47910 -8.29293 27321 ft 477 kts 41°
2026-05-06 17:03 39.50284 -8.26249 27871 ft 481 kts 41°
2026-05-06 17:03 39.52691 -8.23159 28430 ft 486 kts 41°
2026-05-06 17:03 39.55092 -8.20074 28947 ft 490 kts 41°
2026-05-06 17:04 39.57513 -8.16959 29459 ft 495 kts 41°
2026-05-06 17:04 39.59957 -8.13812 29958 ft 499 kts 41°
2026-05-06 17:04 39.62429 -8.10625 30375 ft 503 kts 41°
2026-05-06 17:04 39.64917 -8.07412 30812 ft 507 kts 41°
2026-05-06 17:05 39.67428 -8.04171 31194 ft 510 kts 41°
2026-05-06 17:05 39.69955 -8.00902 31566 ft 514 kts 41°
2026-05-06 17:05 39.72492 -7.97615 31942 ft 517 kts 41°
2026-05-06 17:05 39.75026 -7.94328 32344 ft 520 kts 41°
2026-05-06 17:06 39.77595 -7.90994 32680 ft 523 kts 41°
2026-05-06 17:06 39.80172 -7.87645 33100 ft 524 kts 41°
2026-05-06 17:06 39.82739 -7.84302 33630 ft 522 kts 41°
2026-05-06 17:06 39.85324 -7.80934 34110 ft 521 kts 41°
2026-05-06 17:07 39.87874 -7.77608 34523 ft 521 kts 41°
2026-05-06 17:07 39.90424 -7.74278 34931 ft 520 kts 41°
2026-05-06 17:07 39.92979 -7.70940 35334 ft 519 kts 41°
2026-05-06 17:07 39.95522 -7.67615 35724 ft 519 kts 41°
2026-05-06 17:08 39.98080 -7.64267 36118 ft 518 kts 41°
2026-05-06 17:08 40.00607 -7.60953 36500 ft 517 kts 41°
2026-05-06 17:08 40.03151 -7.57615 36870 ft 517 kts 41°
2026-05-06 17:08 40.05654 -7.54326 37241 ft 517 kts 41°
2026-05-06 17:09 40.08204 -7.50972 37611 ft 516 kts 41°
2026-05-06 17:09 40.10711 -7.47670 37955 ft 515 kts 41°
2026-05-06 17:09 40.13239 -7.44337 38312 ft 515 kts 41°
2026-05-06 17:09 40.15771 -7.40995 38609 ft 515 kts 41°
2026-05-06 17:10 40.18278 -7.37682 38829 ft 515 kts 41°
2026-05-06 17:10 40.20807 -7.34338 39065 ft 516 kts 42°
2026-05-06 17:10 40.23325 -7.31003 39313 ft 515 kts 42°
2026-05-06 17:10 40.25849 -7.27657 39542 ft 515 kts 42°
2026-05-06 17:11 40.28366 -7.24316 39773 ft 515 kts 42°
2026-05-06 17:11 40.33399 -7.17627 39880 ft 516 kts 42°
2026-05-06 17:12 40.38432 -7.10920 39884 ft 515 kts 42°
2026-05-06 17:12 40.43428 -7.04247 39885 ft 515 kts 42°
2026-05-06 17:13 40.48451 -6.97523 39889 ft 515 kts 42°
2026-05-06 17:13 40.53465 -6.90796 39889 ft 515 kts 42°
2026-05-06 17:14 40.58464 -6.84074 39886 ft 515 kts 42°
2026-05-06 17:14 40.63441 -6.77367 39885 ft 515 kts 42°
2026-05-06 17:15 40.68460 -6.70588 39886 ft 514 kts 42°
2026-05-06 17:15 40.73424 -6.63867 39878 ft 514 kts 42°
2026-05-06 17:16 40.78429 -6.57075 39891 ft 514 kts 42°
2026-05-06 17:16 40.83387 -6.50332 39890 ft 514 kts 42°
2026-05-06 17:17 40.88382 -6.43524 39896 ft 514 kts 43°
2026-05-06 17:17 40.93334 -6.36757 39895 ft 514 kts 43°
2026-05-06 17:18 40.98288 -6.29973 39897 ft 514 kts 43°
2026-05-06 17:18 41.03416 -6.23327 39901 ft 512 kts 38°
2026-05-06 17:19 41.08732 -6.17159 39902 ft 511 kts 37°
2026-05-06 17:19 41.14091 -6.10934 39906 ft 511 kts 38°
2026-05-06 17:20 41.19375 -6.04659 39901 ft 511 kts 39°
2026-05-06 17:20 41.24673 -5.98296 39922 ft 512 kts 39°
2026-05-06 17:21 41.29922 -5.91967 39915 ft 512 kts 39°
2026-05-06 17:21 41.35193 -5.85604 39918 ft 512 kts 39°
2026-05-06 17:22 41.40466 -5.79228 39918 ft 512 kts 39°
2026-05-06 17:22 41.45739 -5.72837 39918 ft 512 kts 39°
2026-05-06 17:23 41.51043 -5.66498 39922 ft 510 kts 35°
2026-05-06 17:23 41.57047 -5.61732 39925 ft 502 kts 21°
2026-05-06 17:24 41.63440 -5.58005 39923 ft 502 kts 19°
2026-05-06 17:24 41.68769 -5.55043 39924 ft 502 kts 19°
2026-05-06 17:25 41.75213 -5.51451 39928 ft 502 kts 19°
2026-05-06 17:25 41.81657 -5.47815 39924 ft 502 kts 20°
2026-05-06 17:26 41.88097 -5.44156 39927 ft 502 kts 20°
2026-05-06 17:26 41.94498 -5.40510 39926 ft 502 kts 20°
2026-05-06 17:27 42.00937 -5.36836 39928 ft 502 kts 20°
2026-05-06 17:27 42.07376 -5.33155 39932 ft 502 kts 20°
2026-05-06 17:28 42.13801 -5.29473 39933 ft 502 kts 20°
2026-05-06 17:28 42.20227 -5.25783 39940 ft 502 kts 20°
2026-05-06 17:29 42.26649 -5.22086 39928 ft 502 kts 20°
2026-05-06 17:29 42.33074 -5.18381 39938 ft 501 kts 20°
2026-05-06 17:30 42.39451 -5.14693 39936 ft 501 kts 20°
2026-05-06 17:30 42.45866 -5.10976 39937 ft 501 kts 20°
2026-05-06 17:31 42.52293 -5.07244 39940 ft 502 kts 20°
2026-05-06 17:31 42.58676 -5.03530 39942 ft 501 kts 20°
2026-05-06 17:32 42.65087 -4.99791 39949 ft 501 kts 20°
2026-05-06 17:32 42.71503 -4.96045 39955 ft 501 kts 21°
2026-05-06 17:33 42.76834 -4.92920 39955 ft 501 kts 21°
2026-05-06 17:33 42.84288 -4.88538 39968 ft 501 kts 21°
2026-05-06 17:34 42.89612 -4.85402 39977 ft 501 kts 21°
2026-05-06 17:34 42.96021 -4.81623 39987 ft 501 kts 21°
2026-05-06 17:35 43.02422 -4.77839 39995 ft 500 kts 21°
2026-05-06 17:35 43.08814 -4.74052 40000 ft 500 kts 21°
2026-05-06 17:36 43.18361 -4.68378 40008 ft 500 kts 21°
2026-05-06 17:36 43.24753 -4.64568 40010 ft 500 kts 21°
2026-05-06 17:37 43.31139 -4.60752 40014 ft 500 kts 21°
2026-05-06 17:37 43.37495 -4.56947 40015 ft 499 kts 21°
2026-05-06 17:38 43.43727 -4.53209 40011 ft 499 kts 21°
2026-05-06 17:38 43.50105 -4.49376 40014 ft 499 kts 21°
2026-05-06 17:39 43.56480 -4.45538 40013 ft 499 kts 21°
2026-05-06 17:39 43.62834 -4.41694 40010 ft 499 kts 21°
2026-05-06 17:40 43.69190 -4.37841 40009 ft 499 kts 21°
2026-05-06 17:40 43.75510 -4.34004 40004 ft 499 kts 21°
2026-05-06 17:41 43.81882 -4.30127 40005 ft 499 kts 21°
2026-05-06 17:41 43.88244 -4.26248 40006 ft 499 kts 21°
2026-05-06 17:42 43.94604 -4.22360 40004 ft 499 kts 21°
2026-05-06 17:42 44.00919 -4.18490 40001 ft 499 kts 22°
2026-05-06 17:43 44.07275 -4.14587 40001 ft 499 kts 22°
2026-05-06 17:43 44.13630 -4.10675 40003 ft 499 kts 22°
2026-05-06 17:44 44.19980 -4.06757 40004 ft 498 kts 22°
2026-05-06 17:44 44.26325 -4.02832 40004 ft 498 kts 22°
2026-05-06 17:45 44.32699 -3.99165 40005 ft 496 kts 14°
2026-05-06 17:45 44.39444 -3.97201 40004 ft 494 kts
2026-05-06 17:46 44.46187 -3.95652 40003 ft 494 kts
2026-05-06 17:46 44.52980 -3.94129 40000 ft 493 kts
2026-05-06 17:47 44.59749 -3.92586 39999 ft 493 kts
2026-05-06 17:47 44.66537 -3.91019 40000 ft 493 kts
2026-05-06 17:48 44.73302 -3.89451 40000 ft 493 kts
2026-05-06 17:48 44.80038 -3.87886 39999 ft 493 kts
2026-05-06 17:49 44.86812 -3.86309 40001 ft 493 kts
2026-05-06 17:49 44.93562 -3.84735 39998 ft 493 kts
2026-05-06 17:50 45.00319 -3.83155 39999 ft 492 kts
2026-05-06 17:50 45.07091 -3.81568 40000 ft 492 kts
2026-05-06 17:51 45.13864 -3.79977 39998 ft 492 kts
2026-05-06 17:51 45.20615 -3.78387 40000 ft 492 kts
2026-05-06 17:52 45.27334 -3.76801 39999 ft 492 kts
2026-05-06 17:52 45.34102 -3.75199 39983 ft 492 kts
2026-05-06 17:53 45.40822 -3.73605 39999 ft 492 kts
2026-05-06 17:53 45.47576 -3.71999 39986 ft 492 kts
2026-05-06 17:54 45.54334 -3.70388 39983 ft 491 kts
2026-05-06 17:54 45.61073 -3.68778 39986 ft 491 kts
2026-05-06 17:55 45.67829 -3.67160 40000 ft 491 kts
2026-05-06 17:55 45.74534 -3.65550 39986 ft 491 kts
2026-05-06 17:56 45.81283 -3.63925 39988 ft 491 kts
2026-05-06 17:56 45.88033 -3.62297 39992 ft 491 kts
2026-05-06 17:57 45.94733 -3.60676 39987 ft 491 kts
2026-05-06 17:57 46.01479 -3.59040 39992 ft 491 kts
2026-05-06 17:58 46.08219 -3.57402 39988 ft 490 kts
2026-05-06 17:58 46.14918 -3.55769 39986 ft 490 kts
2026-05-06 17:59 46.21634 -3.54128 39982 ft 490 kts
2026-05-06 17:59 46.28375 -3.52478 39985 ft 490 kts
2026-05-06 18:00 46.35112 -3.50824 39985 ft 490 kts
2026-05-06 18:00 46.41851 -3.49165 39987 ft 490 kts
2026-05-06 18:01 46.48531 -3.47517 39988 ft 490 kts
2026-05-06 18:01 46.55270 -3.45850 39982 ft 490 kts
2026-05-06 18:02 46.62011 -3.44179 39985 ft 490 kts
2026-05-06 18:02 46.68748 -3.42504 39981 ft 490 kts
2026-05-06 18:03 46.75447 -3.40834 39982 ft 490 kts
2026-05-06 18:03 46.82184 -3.39151 39982 ft 490 kts
2026-05-06 18:04 46.88922 -3.37463 39979 ft 491 kts
2026-05-06 18:04 46.95614 -3.35782 39981 ft 490 kts
2026-05-06 18:05 47.02352 -3.34086 39973 ft 491 kts
2026-05-06 18:05 47.09089 -3.32385 39976 ft 491 kts
2026-05-06 18:06 47.15789 -3.30690 39969 ft 490 kts
2026-05-06 18:06 47.22526 -3.28980 39969 ft 490 kts
2026-05-06 18:07 47.29216 -3.27278 39967 ft 491 kts
2026-05-06 18:07 47.35954 -3.25560 39969 ft 491 kts
2026-05-06 18:08 47.42698 -3.23836 39968 ft 491 kts
2026-05-06 18:08 47.49421 -3.22112 39965 ft 491 kts
2026-05-06 18:09 47.56156 -3.20381 39964 ft 491 kts
2026-05-06 18:09 47.62882 -3.18648 39964 ft 491 kts
2026-05-06 18:10 47.69616 -3.16908 39966 ft 491 kts
2026-05-06 18:10 47.76124 -3.13974 39968 ft 494 kts 24°
2026-05-06 18:11 47.81150 -3.09898 39967 ft 495 kts 28°
2026-05-06 18:11 47.88068 -3.03835 39967 ft 496 kts 29°
2026-05-06 18:12 47.94011 -2.98581 39967 ft 496 kts 29°
2026-05-06 18:12 47.99978 -2.93327 39963 ft 496 kts 29°
2026-05-06 18:13 48.05880 -2.88135 39963 ft 496 kts 29°
2026-05-06 18:13 48.11829 -2.82889 39965 ft 495 kts 29°
2026-05-06 18:14 48.17785 -2.77622 39966 ft 496 kts 29°
2026-05-06 18:14 48.23676 -2.72397 39970 ft 496 kts 29°
2026-05-06 18:15 48.29604 -2.67125 39974 ft 496 kts 29°
2026-05-06 18:15 48.35541 -2.61830 39979 ft 496 kts 29°
2026-05-06 18:16 48.41492 -2.56509 39982 ft 496 kts 30°
2026-05-06 18:16 48.47555 -2.51584 39987 ft 495 kts 22°
2026-05-06 18:17 48.53866 -2.47565 39984 ft 495 kts 21°
2026-05-06 18:17 48.60246 -2.43620 39982 ft 495 kts 21°
2026-05-06 18:18 48.66604 -2.39681 39984 ft 495 kts 21°
2026-05-06 18:18 48.72962 -2.35716 39984 ft 495 kts 21°
2026-05-06 18:19 48.79332 -2.31724 39982 ft 495 kts 21°
2026-05-06 18:19 48.85696 -2.27724 39986 ft 495 kts 21°
2026-05-06 18:20 48.92017 -2.23740 39990 ft 495 kts 21°
2026-05-06 18:20 48.98417 -2.19696 39995 ft 495 kts 21°
2026-05-06 18:21 49.04749 -2.15685 39987 ft 495 kts 21°
2026-05-06 18:21 49.11119 -2.11638 39988 ft 495 kts 21°
2026-05-06 18:22 49.16404 -2.08271 39989 ft 495 kts 21°
2026-05-06 18:22 49.22719 -2.04018 40005 ft 496 kts 27°
2026-05-06 18:23 49.28805 -1.99010 39989 ft 496 kts 27°
2026-05-06 18:23 49.34848 -1.93872 39990 ft 497 kts 28°
2026-05-06 18:24 49.40880 -1.88713 39988 ft 497 kts 28°
2026-05-06 18:24 49.46919 -1.83548 39961 ft 495 kts 28°
2026-05-06 18:25 49.49919 -1.80980 39448 ft 493 kts 28°
2026-05-06 18:25 49.52926 -1.78404 38749 ft 496 kts 28°
2026-05-06 18:25 49.55965 -1.75838 37956 ft 496 kts 25°
2026-05-06 18:25 49.59130 -1.73803 37662 ft 492 kts 17°
2026-05-06 18:26 49.62447 -1.72572 37403 ft 489 kts
2026-05-06 18:26 49.65780 -1.72019 37138 ft 487 kts
2026-05-06 18:26 49.69168 -1.71646 36868 ft 487 kts
2026-05-06 18:26 49.72551 -1.71360 36607 ft 487 kts
2026-05-06 18:27 49.75937 -1.71107 36347 ft 486 kts
2026-05-06 18:27 49.79320 -1.70858 36091 ft 486 kts
2026-05-06 18:27 49.82705 -1.70600 35830 ft 486 kts
2026-05-06 18:27 49.86076 -1.70331 35585 ft 485 kts
2026-05-06 18:28 49.89449 -1.70053 35342 ft 485 kts
2026-05-06 18:28 49.92820 -1.69769 35091 ft 485 kts
2026-05-06 18:28 49.96188 -1.69482 34847 ft 485 kts
2026-05-06 18:28 49.99549 -1.68942 34602 ft 486 kts
2026-05-06 18:29 50.02845 -1.67714 34363 ft 487 kts 15°
2026-05-06 18:29 50.06093 -1.66188 34130 ft 487 kts 15°
2026-05-06 18:29 50.09330 -1.64633 34001 ft 487 kts 15°
2026-05-06 18:29 50.12568 -1.63070 33958 ft 486 kts 15°
2026-05-06 18:30 50.15735 -1.61536 33363 ft 481 kts 15°
2026-05-06 18:30 50.18953 -1.59975 32256 ft 487 kts 15°
2026-05-06 18:30 50.22208 -1.58394 31183 ft 492 kts 16°
2026-05-06 18:30 50.25491 -1.56795 30181 ft 496 kts 16°
2026-05-06 18:31 50.28779 -1.55192 28953 ft 491 kts 16°
2026-05-06 18:31 50.32027 -1.53603 28136 ft 485 kts 16°
2026-05-06 18:31 50.35224 -1.52035 27612 ft 477 kts 16°
2026-05-06 18:31 50.38384 -1.50484 26995 ft 472 kts 16°
2026-05-06 18:32 50.41501 -1.48953 26416 ft 467 kts 16°
2026-05-06 18:32 50.44586 -1.47436 25818 ft 463 kts 16°
2026-05-06 18:32 50.47642 -1.45931 25231 ft 458 kts 16°
2026-05-06 18:32 50.50675 -1.44436 24646 ft 454 kts 16°
2026-05-06 18:33 50.53653 -1.42843 24057 ft 451 kts 21°
2026-05-06 18:33 50.56461 -1.40679 23479 ft 448 kts 27°
2026-05-06 18:33 50.59146 -1.38356 22843 ft 443 kts 27°
2026-05-06 18:33 50.61828 -1.36029 22266 ft 438 kts 27°
2026-05-06 18:34 50.64483 -1.33735 21686 ft 433 kts 27°
2026-05-06 18:34 50.67148 -1.31435 21108 ft 429 kts 27°
2026-05-06 18:34 50.69724 -1.29211 20531 ft 426 kts 27°
2026-05-06 18:34 50.72315 -1.26974 19957 ft 422 kts 27°
2026-05-06 18:35 50.74882 -1.24755 19378 ft 419 kts 27°
2026-05-06 18:35 50.77424 -1.22541 18804 ft 416 kts 28°
2026-05-06 18:35 50.79870 -1.20094 18217 ft 413 kts 33°
2026-05-06 18:35 50.82242 -1.17551 17583 ft 409 kts 33°
2026-05-06 18:36 50.84588 -1.15062 16999 ft 404 kts 32°
2026-05-06 18:36 50.86925 -1.12612 16418 ft 400 kts 32°
2026-05-06 18:36 50.89237 -1.10200 15839 ft 396 kts 32°
2026-05-06 18:36 50.91535 -1.07810 15260 ft 393 kts 32°
2026-05-06 18:37 50.93809 -1.05446 14691 ft 389 kts 32°
2026-05-06 18:37 50.96034 -1.03134 14130 ft 385 kts 32°
2026-05-06 18:37 50.98263 -1.00817 13528 ft 382 kts 32°
2026-05-06 18:37 51.00449 -0.98362 13083 ft 381 kts 39°
2026-05-06 18:38 51.02286 -0.95438 13000 ft 372 kts 47°
2026-05-06 18:38 51.03950 -0.92440 12738 ft 346 kts 47°
2026-05-06 18:38 51.05485 -0.89673 12350 ft 321 kts 47°
2026-05-06 18:38 51.06929 -0.87086 11849 ft 304 kts 46°
2026-05-06 18:39 51.08292 -0.84650 11610 ft 294 kts 46°
2026-05-06 18:39 51.09663 -0.82206 11397 ft 294 kts 46°
2026-05-06 18:39 51.11009 -0.79802 11136 ft 291 kts 46°
2026-05-06 18:40 51.13687 -0.75016 10575 ft 292 kts 46°
2026-05-06 18:40 51.15015 -0.72638 10335 ft 289 kts 46°
2026-05-06 18:40 51.16345 -0.70253 10006 ft 287 kts 46°
2026-05-06 18:40 51.17669 -0.67878 9559 ft 286 kts 46°
2026-05-06 18:41 51.18966 -0.65551 9290 ft 284 kts 46°
2026-05-06 18:41 51.20322 -0.63283 8876 ft 281 kts 38°
2026-05-06 18:41 51.22030 -0.61877 8425 ft 276 kts 13°
2026-05-06 18:41 51.23923 -0.61790 8042 ft 271 kts 348°
2026-05-06 18:42 51.25631 -0.62989 7650 ft 268 kts 325°
2026-05-06 18:42 51.27100 -0.64799 7261 ft 266 kts 321°
2026-05-06 18:42 51.28521 -0.66677 7028 ft 264 kts 321°
2026-05-06 18:42 51.29926 -0.68540 6996 ft 265 kts 321°
2026-05-06 18:43 51.31346 -0.70430 6992 ft 265 kts 321°
2026-05-06 18:43 51.32758 -0.72310 6766 ft 263 kts 321°
2026-05-06 18:43 51.34161 -0.74185 6376 ft 262 kts 321°
2026-05-06 18:43 51.35554 -0.76052 5960 ft 261 kts 321°
2026-05-06 18:44 51.36942 -0.77912 5545 ft 260 kts 321°
2026-05-06 18:44 51.38325 -0.79767 5138 ft 259 kts 321°
2026-05-06 18:44 51.39868 -0.81213 4624 ft 259 kts 342°
2026-05-06 18:44 51.41635 -0.81577 4282 ft 254 kts 359°
2026-05-06 18:45 51.43395 -0.81558 4010 ft 252 kts
2026-05-06 18:45 51.45140 -0.81514 3617 ft 251 kts
2026-05-06 18:45 51.46856 -0.81305 3334 ft 240 kts 12°
2026-05-06 18:45 51.48225 -0.80031 3050 ft 222 kts 49°
2026-05-06 18:46 51.48711 -0.77848 3009 ft 205 kts 89°
2026-05-06 18:46 51.48364 -0.75761 3044 ft 189 kts 106°
2026-05-06 18:46 51.48033 -0.73735 3011 ft 186 kts 98°
2026-05-06 18:46 51.47813 -0.71686 3028 ft 184 kts 94°
2026-05-06 18:47 51.47711 -0.69631 2947 ft 185 kts 89°
2026-05-06 18:47 51.47696 -0.67540 2541 ft 191 kts 87°
2026-05-06 18:47 51.47689 -0.65424 2246 ft 185 kts 86°
2026-05-06 18:47 51.47699 -0.63413 1988 ft 174 kts 86°
2026-05-06 18:48 51.47703 -0.61544 1753 ft 162 kts 86°
2026-05-06 18:48 51.47709 -0.59754 1520 ft 160 kts 86°
2026-05-06 18:48 51.47714 -0.58001 1309 ft 156 kts 86°
2026-05-06 18:48 51.47720 -0.56307 1077 ft 148 kts 86°
2026-05-06 18:49 51.47721 -0.54701 836 ft 140 kts 86°
2026-05-06 18:49 51.47722 -0.53178 640 ft 134 kts 86°
2026-05-06 18:49 51.47723 -0.51692 498 ft 134 kts 86°
2026-05-06 18:49 51.47729 -0.50180 311 ft 136 kts 86°
2026-05-06 18:50 51.47747 -0.48653 162 ft 137 kts 86°
2026-05-06 18:50 51.47752 -0.47143 95 ft 130 kts 87°
2026-05-06 18:50 51.47759 -0.45942 94 ft 72 kts 90°
2026-05-06 18:50 51.47756 -0.45559 95 ft 15 kts 105°
2026-05-06 18:51 51.47692 -0.45480 96 ft 6 kts 166°
2026-05-06 18:51 51.47646 -0.45472 94 ft 7 kts 178°
2026-05-06 18:51 51.47586 -0.45471 93 ft 10 kts 181°
2026-05-06 18:51 51.47535 -0.45481 95 ft 6 kts 201°
2026-05-06 18:52 51.47509 -0.45536 96 ft 7 kts 253°
2026-05-06 18:52 51.47508 -0.45622 96 ft 9 kts 269°
2026-05-06 18:52 51.47525 -0.45720 97 ft 8 kts 316°
2026-05-06 18:52 51.47572 -0.45771 97 ft 9 kts 312°
2026-05-06 18:53 51.47593 -0.45877 96 ft 11 kts 273°
2026-05-06 18:53 51.47595 -0.46019 96 ft 14 kts 271°
2026-05-06 18:53 51.47595 -0.46194 96 ft 17 kts 269°
2026-05-06 18:53 51.47593 -0.46401 96 ft 20 kts 269°
2026-05-06 18:54 51.47591 -0.46642 93 ft 23 kts 270°
2026-05-06 18:54 51.47586 -0.46847 94 ft 17 kts 262°
2026-05-06 18:54 51.47583 -0.47048 96 ft 20 kts 270°
2026-05-06 18:54 51.47581 -0.47280 96 ft 23 kts 269°
2026-05-06 18:55 51.47580 -0.47546 96 ft 25 kts 269°
2026-05-06 18:55 51.47579 -0.47787 96 ft 16 kts 268°
2026-05-06 18:55 51.47532 -0.47868 97 ft 11 kts 196°
2026-05-06 18:55 51.47446 -0.47875 93 ft 14 kts 180°
2026-05-06 18:56 51.47336 -0.47875 93 ft 18 kts 180°
2026-05-06 18:56 51.47254 -0.47874 94 ft 1 kts 180°
2026-05-06 18:56 51.47233 -0.47882 94 ft 4 kts 204°
2026-05-06 18:56 51.47219 -0.47916 94 ft 4 kts 249°
2026-05-06 18:57 51.47213 -0.47981 95 ft 6 kts 268°
2026-05-06 18:57 51.47213 -0.48025 94 ft 5 kts 269°
2026-05-06 18:57 51.47213 -0.48026 94 ft 0 kts 269°